| time (UTC) | temp F | wind direction | speed knots | gust knots | rain 1hr in | rain 24hr in | rain mn in | humidity % | barometer mb |
| 20260505023035 | 59 | 248 | 2.6 | 9.6 | 0.00 | 0.00 | 0.00 | 58 | 1009.3 |
| 20260505021532 | 60 | 209 | 1.7 | 7.8 | 0.00 | 0.00 | 0.00 | 57 | 1009.3 |
| 20260505020038 | 60 | 276 | 2.6 | 9.6 | 0.00 | 0.00 | 0.00 | 56 | 1009.3 |
| 20260505014536 | 61 | 228 | 2.6 | 9.6 | 0.00 | 0.00 | 0.00 | 54 | 1009.2 |
| 20260505013037 | 62 | 136 | 6.1 | 12.2 | 0.00 | 0.00 | 0.00 | 53 | 1009.0 |
| 20260505011536 | 62 | 215 | 4.3 | 10.4 | 0.00 | 0.00 | 0.00 | 52 | 1008.6 |
| 20260505010035 | 63 | 271 | 3.5 | 12.2 | 0.00 | 0.00 | 0.00 | 51 | 1008.4 |
| 20260505004544 | 63 | 294 | 4.3 | 12.2 | 0.00 | 0.00 | 0.00 | 49 | 1008.0 |
| 20260505003033 | 63 | 209 | 0.0 | 4.3 | 0.00 | 0.00 | 0.00 | 46 | 1007.6 |
| 20260505001534 | 64 | 209 | 0.9 | 4.3 | 0.00 | 0.00 | 0.00 | 45 | 1007.1 |
| 20260505000051 | 65 | 246 | 0.9 | 7.8 | 0.00 | 0.00 | 0.00 | 43 | 1006.9 |
| 20260504234538 | 66 | 237 | 0.9 | 5.2 | 0.00 | 0.00 | 0.00 | 38 | 1006.7 |
| 20260504233032 | 67 | 193 | 3.5 | 10.4 | 0.00 | 0.00 | 0.00 | 36 | 1006.5 |
| 20260504231535 | 68 | 297 | 0.9 | 8.7 | 0.00 | 0.00 | 0.00 | 34 | 1006.2 |
| 20260504230048 | 69 | 227 | 3.5 | 11.3 | 0.00 | 0.00 | 0.00 | 37 | 1006.2 |
| 20260504224531 | 70 | 297 | 1.7 | 9.6 | 0.00 | 0.00 | 0.00 | 36 | 1005.9 |
| 20260504223034 | 70 | 177 | 4.3 | 12.2 | 0.00 | 0.00 | 0.00 | 35 | 1005.9 |
| 20260504221549 | 70 | 224 | 3.5 | 12.2 | 0.00 | 0.00 | 0.00 | 35 | 1005.9 |
| 20260504220035 | 71 | 218 | 1.7 | 9.6 | 0.00 | 0.00 | 0.00 | 32 | 1005.9 |
| 20260504214537 | 71 | 276 | 3.5 | 16.5 | 0.00 | 0.00 | 0.00 | 34 | 1005.9 |
| 20260504213043 | 71 | 101 | 6.1 | 12.2 | 0.00 | 0.00 | 0.00 | 34 | 1005.7 |
| 20260504211543 | 71 | 293 | 4.3 | 13.0 | 0.00 | 0.00 | 0.00 | 34 | 1006.0 |
| 20260504210032 | 70 | 317 | 2.6 | 16.5 | 0.00 | 0.00 | 0.00 | 31 | 1006.0 |
| 20260504204538 | 70 | 263 | 3.5 | 13.0 | 0.00 | 0.00 | 0.00 | 35 | 1005.7 |
| 20260504203033 | 71 | 300 | 1.7 | 16.5 | 0.00 | 0.00 | 0.00 | 34 | 1005.8 |
| 20260504201535 | 70 | 270 | 4.3 | 14.8 | 0.00 | 0.00 | 0.00 | 34 | 1005.9 |
| 20260504200034 | 69 | 255 | 3.5 | 15.6 | 0.00 | 0.00 | 0.00 | 34 | 1005.8 |
| 20260504194532 | 70 | 243 | 6.1 | 16.5 | 0.00 | 0.00 | 0.00 | 34 | 1006.1 |
| 20260504193032 | 69 | 304 | 4.3 | 13.0 | 0.00 | 0.00 | 0.00 | 34 | 1006.1 |
| 20260504191540 | 70 | 196 | 6.1 | 11.3 | 0.00 | 0.00 | 0.00 | 33 | 1006.0 |
| 20260504190036 | 69 | 285 | 4.3 | 20.9 | 0.00 | 0.00 | 0.00 | 30 | 1006.1 |
| 20260504184535 | 68 | 238 | 5.2 | 13.9 | 0.00 | 0.00 | 0.00 | 34 | 1006.2 |
| 20260504183034 | 70 | 198 | 7.8 | 17.4 | 0.00 | 0.00 | 0.00 | 28 | 1006.4 |
| 20260504181535 | 71 | 323 | 1.7 | 15.6 | 0.00 | 0.00 | 0.00 | 30 | 1006.5 |
| 20260504180032 | 69 | 278 | 7.0 | 24.3 | 0.00 | 0.00 | 0.00 | 34 | 1006.5 |
| 20260504174535 | 68 | 326 | 5.2 | 17.4 | 0.00 | 0.00 | 0.00 | 35 | 1006.7 |
| 20260504173036 | 68 | 195 | 4.3 | 15.6 | 0.00 | 0.00 | 0.00 | 35 | 1006.9 |
| 20260504171535 | 68 | 231 | 6.1 | 18.2 | 0.00 | 0.00 | 0.00 | 36 | 1006.7 |
| 20260504081534 | 42 | 0 | 0.0 | 0.0 | 0.00 | 0.00 | 0.00 | 71 | 1009.8 |
| 20260504044532 | 39 | 267 | 0.0 | 1.7 | 0.00 | 0.00 | 0.00 | 72 | 1009.5 |
| 20260504043031 | 38 | 0 | 0.0 | 1.7 | 0.00 | 0.00 | 0.00 | 73 | 1009.4 |
| 20260504041534 | 38 | 0 | 0.0 | 0.9 | 0.00 | 0.00 | 0.00 | 75 | 1009.4 |
| 20260504040041 | 38 | 289 | 0.0 | 0.9 | 0.00 | 0.00 | 0.00 | 74 | 1009.4 |
| 20260504034536 | 38 | 0 | 0.0 | 0.0 | 0.00 | 0.00 | 0.00 | 75 | 1009.3 |
| 20260504033037 | 38 | 0 | 0.0 | 0.0 | 0.00 | 0.00 | 0.00 | 75 | 1009.3 |
| 20260504031537 | 38 | 0 | 0.0 | 0.0 | 0.00 | 0.00 | 0.00 | 75 | 1009.3 |
| 20260504030034 | 38 | 0 | 0.0 | 0.0 | 0.00 | 0.00 | 0.00 | 72 | 1009.3 |
| 20260504024533 | 39 | 0 | 0.0 | 0.0 | 0.00 | 0.00 | 0.00 | 74 | 1009.3 |